Regional Weather Roundup
Issued by NWS Sioux Falls, SD

Home | Current Version | Previous Version | Text Only | Print | Product List | Glossary Off
Versions: 1 2 3 4 5 6 7 8 9 10 11 12 13 14 15 16 17 18 19 20 21 22 23 24 25 26 27 28 29 30 31 32 33 34 35 36 37 38 39 40 41 42 43 44 45 46 47 48 49 50

000
ASUS43 KFSD 070910
RWRFSD

WEATHER ROUNDUP FOR SE SOUTH DAKOTA/SW MINNESOTA/NW IOWA
NATIONAL WEATHER SERVICE SIOUX FALLS SD
400 AM CDT THU MAY 07 2015

NOTE: "FAIR" INDICATES FEW OR NO CLOUDS BELOW 12,000 FEET WITH NO
SIGNIFICANT WEATHER AND OR OBSTRUCTIONS TO VISIBILITY.


SDZ038>040-050-052>070-071000-
SOUTHEAST SOUTH DAKOTA

CITY           SKY/WX    TMP DP  RH WIND       PRES   REMARKS
BROOKINGS      CLOUDY    61  59  94 S16G22    29.65S
CHAMBERLAIN    FOG       51  51 100 W3        29.61R VSB 1/4
HURON          CLOUDY    61  59  93 S7        29.59S
MADISON        CLOUDY    59  59 100 S14       29.63F
MITCHELL       CLOUDY    61  60  97 S9        29.61R
SIOUX FALLS    CLOUDY    61  58  90 S16       29.63F
WINNER         FAIR      57  53  86 W10       29.62S
YANKTON        CLOUDY    63  57  82 S16G24    29.61F
$$

MNZ071-072-080-081-089-090-097-098-071000-
SOUTHWEST MINNESOTA

CITY           SKY/WX    TMP DP  RH WIND       PRES   REMARKS
FAIRMONT       CLOUDY    63  34  34 S20G30    29.72F
JACKSON        LGT RAIN  63  59  88 SE17G25   29.71S
LUVERNE        CLOUDY    61  59  94 S16       29.66F
MARSHALL       CLOUDY    63  55  77 S17       29.66F
MONTEVIDEO     LGT RAIN  63  63 100 S12G17    29.67F
PIPESTONE      CLOUDY    61  57  88 S14       29.66S
REDWOOD FALLS  LGT RAIN  63  59  87 S18       29.68F
TRACY          CLOUDY    64  60  87 S16G25    29.67F
WINDOM         CLOUDY    63  59  88 S21G26    29.68F
WORTHINGTON    CLOUDY    63  55  77 S18G26    29.68F
$$

IAZ001>003-012>014-020>022-031-032-NEZ013-014-SDZ071-071000-
NORTHWEST IOWA

CITY           SKY/WX    TMP DP  RH WIND       PRES   REMARKS
CHEROKEE       LGT RAIN  61  60  97 S17G26    29.68F
DENISON        LGT RAIN  61  61 100 S13       29.74S
ESTHERVILLE    LGT RAIN  62  59  90 S21       29.72F
LE MARS        CLOUDY    63  61  94 S23G32    29.66F
ORANGE CITY    LGT RAIN  61  57  88 S14G20    29.67S
SHELDON        CLOUDY    63 N/A N/A S23G29    29.67R
SIOUX CITY     LGT RAIN  63  58  83 S21       29.66F
SPENCER        LGT RAIN  63  60  90 SE18      29.69F
STORM LAKE     CLOUDY    61  59  94 S24G32    29.73S
$$

ABBREVIATIONS USED IN REMARKS
   TC - TEMPERATURE IN CELSIUS
  WCI - WIND CHILL INDEX
   HX - HEAT INDEX
  VSB - VISIBILITY



USA.gov is the U.S. government's official web portal to all federal, state and local government web resources and services.